Preview of NWS' New Version of Forecast
This preview is not operational and should not be used for support decisions.
Latest weather observations around

Minden Airport (KMNE)

Using English Units (Switch to International System of Units)
Date/ Time (CDT) Wind (mph) Vis. (mi) Weather Sky Cond. Temp (°F) Rel. Humidity Wind Chill (°F) Heat Index (°F) Pressure Precip. (in)
Air Dwpt 6 hour Altimeter (inHg) Sea level (inHg) 1 hr 3 hr 6 hr
Max Min
Jun 19 05:55 Calm 10 Clear CLR 73 71     93%   75 29.84        
Jun 19 05:35 ESE 5 10 Clear CLR 73 71     92%   74 29.82        
Jun 19 05:15 ESE 3 10 Clear CLR 72 70     93%   74 29.82        
Jun 19 04:55 Calm 10 Clear CLR 73 70     92%   74 29.83        
Jun 19 04:35 Calm 10 Clear CLR 73 70     91%   74 29.83        
Jun 19 04:15 Calm 10 Clear CLR 73 71     92%   74 29.83        
Jun 19 03:55 Calm 10 Clear CLR 73 71     92%   75 29.84        
Jun 19 03:35 SE 3 10 Clear CLR 73 71     93%   74 29.84        
Jun 19 03:15 Calm 10 Clear CLR 72 71     94%   74 29.85        
Jun 19 02:55 Calm 10 Clear CLR 72 71     94%   74 29.85        
Jun 19 02:35 Calm 10 Clear CLR 73 71     94%   74 29.85        
Jun 19 02:15 Calm 10 Clear CLR 73 71     92%   75 29.86        
Jun 19 01:55 Calm 10 Clear CLR 73 71     92%   75 29.87        
Jun 19 01:35 Calm 10 Clear CLR 73 71     93%   75 29.88        
Jun 19 01:15 Calm 10 Clear CLR 74 71     92%   75 29.88        
Jun 19 00:55 Calm 10 Clear CLR 74 72     94%   75 29.89        
Jun 19 00:35 Calm 10 Clear CLR 74 71     93%   75 29.89        
Jun 19 00:15 Calm 10 Clear CLR 74 72     91%   76 29.89        
Jun 18 23:55 Calm 10 Clear CLR 75 72     91%   76 29.89        
Jun 18 23:35 Calm 10 Clear CLR 75 72     91%   77 29.89        
Jun 18 23:15 Calm 10 Clear CLR 75 72     91%   77 29.88        
Jun 18 22:55 Calm 10 Clear CLR 75 72     91%   77 29.88        
Jun 18 22:35 Calm 10 Clear CLR 76 73     91%   77 29.87        
Jun 18 22:15 Calm 10 Clear CLR 76 72     90%   77 29.87        
Jun 18 21:55 Calm 10 Clear CLR 77 72     87%   78 29.86        
Jun 18 21:35 Calm 10 Clear CLR 78 73     85%   79 29.86        
Jun 18 21:15 Calm 10 Clear CLR 78 73     86%   79 29.86        
Jun 18 20:55 Calm 10 Clear CLR 79 73     81%   83 29.86        
Jun 18 20:35 Calm 10 Clear CLR 81 72     75%   86 29.85        
Jun 18 20:15 Calm 10 Clear CLR 83 72     70%   88 29.85        
Jun 18 19:55 Calm 10 Clear CLR 86 71     60%   92 29.86        
Jun 18 19:35 Calm 10 Clear CLR 87 70     57%   92 29.85        
Jun 18 19:15 Calm 10 Clear CLR 87 69     56%   92 29.85        
Jun 18 18:55 WSW 3 10 Clear CLR 88 69     53%   93 29.85        
Jun 18 18:35 W 6 10 Clear CLR 89 69     52%   94 29.85        
Jun 18 18:15 W 3 10 Clear CLR 89 69     52%   94 29.86        
Jun 18 17:55 Calm 10 Partly Cloudy SCT070 89 69     52%   93 29.86        
Jun 18 17:35 NW 3 10 Partly Cloudy SCT070 89 70     54%   93 29.87        
Jun 18 17:15 NW 3 10 Partly Cloudy SCT048 SCT070 89 69     52%   94 29.87        
Jun 18 16:55 W 6 10 Partly Cloudy SCT060 88 69     53%   93 29.88        
Jun 18 16:35 WNW 5 10 Partly Cloudy SCT045 89 69     51%   94 29.88        
Jun 18 16:15 Calm 10 Clear CLR 89 69     52%   94 29.88        
Jun 18 15:55 Calm 10 Partly Cloudy SCT044 88 69     54%   93 29.88        
Jun 18 15:35 Calm 10 Partly Cloudy SCT044 89 69     52%   93 29.89        
Jun 18 15:15 WNW 5 10 Mostly Cloudy BKN044 BKN050 87 69     55%   91 29.9        
Jun 18 14:55 WNW 6 10 Partly Cloudy SCT046 SCT060 88 69     53%   93 29.91        
Jun 18 14:35 W 6 10 Partly Cloudy SCT048 88 68     53%   92 29.91        
Jun 18 14:15 WSW 7 10 Partly Cloudy SCT044 SCT050 88 68     53%   92 29.91        
Jun 18 13:55 WSW 5 10 Partly Cloudy SCT042 SCT050 87 69     55%   91 29.92        
Jun 18 13:35 WSW 8 10 Mostly Cloudy BKN042 BKN050 BKN065 85 69     58%   89 29.93        
Jun 18 13:15 WSW 8 10 Partly Cloudy SCT042 SCT065 87 69     56%   91 29.94        
Jun 18 12:55 W 7 10 Mostly Cloudy BKN042 BKN050 86 69     59%   90 29.94        
Jun 18 12:35 WSW 7 10 Mostly Cloudy SCT040 BKN050 85 70     60%   90 29.95        
Jun 18 12:15 W 7 10 Partly Cloudy SCT038 85 69     58%   89 29.95        
Jun 18 11:55 WSW 8 10 Partly Cloudy SCT038 SCT045 85 69     60%   89 29.95        
Jun 18 11:35 NW 7 10 Partly Cloudy SCT034 85 69     59%   89 29.95        
Jun 18 11:15 NW 6 10 Mostly Cloudy BKN034 84 69     62%   87 29.95        
Jun 18 10:55 W 6 10 Mostly Cloudy BKN032 BKN038 83 70     65%   88 29.95        
Jun 18 10:35 NW 8 10 Partly Cloudy SCT020 SCT025 SCT034 83 71     67%   87 29.95        
Jun 18 10:15 NW 3 10 Partly Cloudy SCT016 SCT027 82 74     77%   87 29.95        
Jun 18 09:55 NW 5 10 Partly Cloudy SCT014 78 74     86%   80 29.95        
Jun 18 09:35 Calm 10 Mostly Cloudy BKN005 76 74     95%   77 29.95        
Jun 18 09:15 Calm 7 Cloudy OVC003 74 73     96%   76 29.94        
Jun 18 08:55 Calm 5 Fog/Mist OVC003 74 73     97%   75 29.94        
Jun 18 08:35 Calm 7 Cloudy BKN003 OVC009 73 72     97%   75 29.94        
Jun 18 08:15 SW 3 5 Fog/Mist BKN003 OVC009 73 72     98%   74 29.94        
Jun 18 07:55 Calm 0.5 Fog OVC003 72 72     97%   74 29.94        
Jun 18 07:35 Calm 4 Fog/Mist OVC003 72 71     98%   73 29.93        
Jun 18 07:15 Calm 4 Fog/Mist SCT003 BKN012 71 71     98%   73 29.93        
Jun 18 06:55 Calm 5 Fog/Mist BKN012 BKN034 BKN044 71 70     97%   72 29.93        
Jun 18 06:35 Calm 4 Fog/Mist SCT003 BKN043 OVC050 71 70     98%   72 29.93        
Jun 18 06:15 Calm 5 Fog/Mist SCT003 OVC043 71 70     97%   72 29.92        
Jun 18 05:55 Calm 5 Fog/Mist SCT003 SCT047 BKN050 70 69     98%   71 29.92        
Jun 18 05:35 Calm 5 Fog/Mist SCT031 70 69     97%     29.92        
Jun 18 05:15 Calm 2.5 Fog/Mist CLR 70 69     98%   71 29.91        
Jun 18 04:55 Calm 1.75 Fog/Mist SCT003 SCT033 71 70     97%   72 29.91        
Jun 18 04:35 Calm 5 Fog/Mist SCT033 70 69     97%   72 29.91        
Jun 18 04:15 Calm 5 Fog/Mist CLR 70 69     97%   71 29.91        
Jun 18 03:55 Calm 5 Fog/Mist CLR 70 69     97%   71 29.91        
Jun 18 03:35 ESE 3 1.75 Fog/Mist VV007 71 70     97%   72 29.91        
Jun 18 03:15 Calm 2 Fog/Mist CLR 71 70     97%   73 29.91        
Jun 18 02:55 Calm 5 Fog/Mist CLR 71 70     97%   73 29.91        
Jun 18 02:35 Calm 10 Clear CLR 71 70     97%   72 29.92        
Jun 18 02:15 Calm 3 Fog/Mist CLR 72 71     97%   73 29.92        
Jun 18 01:55 Calm 7 Clear CLR 71 70     97%   73 29.92        
Jun 18 01:35 Calm 3 Fog/Mist CLR 72 71     97%   73 29.92        
Jun 18 01:15 Calm 4 Fog/Mist CLR 72 71     97%   74 29.92        
Jun 18 00:55 Calm 5 Fog/Mist CLR 72 72     97%   74 29.93        
Jun 18 00:35 Calm 7 Clear CLR 72 71     96%   74 29.92        
Jun 18 00:15 Calm 5 Fog/Mist CLR 73 72     96%   74 29.92        
Jun 17 23:55 Calm 4 Fog/Mist CLR 73 72     97%   75 29.92        
Jun 17 23:35 Calm 10 Clear CLR 74 73     96%   75 29.93        
Jun 17 23:15 Calm 7 Clear CLR 74 73     96%   76 29.92        
Jun 17 22:55 Calm 7 Clear CLR 74 73     95%   76 29.92        
Jun 17 22:35 ESE 3 4 Fog/Mist CLR 74 73     95%   76 29.92        
Jun 17 22:15 Calm 10 Clear CLR 75 73     95%   77 29.91        
Jun 17 21:55 Calm 7 Clear CLR 75 74     95%   77 29.91        
Jun 17 21:35 Calm 7 Clear CLR 76 74     94%   77 29.9        
Jun 17 21:20 Calm 10 Clear CLR 75 74     94%   77 29.89        
Jun 17 20:55 Calm 10 Clear CLR 77 74     93%   79 29.89        
Jun 17 20:35 Calm 10 Clear CLR 77 74     91%   78 29.89        
Jun 17 20:15 Calm 10 Clear CLR 78 75     91%   80 29.88        
Jun 17 19:55 Calm 10 Partly Cloudy SCT060 79 75     89%   82 29.88        
Jun 17 19:35 Calm 10 Mostly Cloudy BKN060 79 76     90%   82 29.88        
Jun 17 19:15 Calm 10 Mostly Cloudy SCT031 SCT048 BKN060 79 75     88%   82 29.88        
Jun 17 18:55 Calm 10 Cloudy SCT007 BKN031 OVC060 79 74     86%   82 29.88   0   0
Jun 17 18:35 SSW 6 10 Cloudy SCT005 BKN029 OVC060 82 72     71%   87 29.88   0    
Jun 17 18:15 SSW 5 10 Mostly Cloudy SCT029 SCT036 BKN070 83 72     70%   88 29.88        
Jun 17 17:55 SW 3 10 Mostly Cloudy BKN060 BKN070 83 72     71%   88 29.88        
Jun 17 17:35 SW 5 10 Mostly Cloudy SCT048 BKN060 BKN070 83 72     68%   88 29.88        
Jun 17 17:15 WSW 5 10 Mostly Cloudy BKN048 85 71     64%   90 29.89        
Jun 17 16:55 SW 6 10 Partly Cloudy SCT046 85 71     64%   91 29.89        
Jun 17 16:35 W 7 10 Clear CLR 84 71     64%   89 29.89        
Jun 17 16:15 WSW 6 10 Clear CLR 84 71     64%   89 29.9        
Jun 17 15:55 SW 6 10 Clear CLR 85 71     63%   89 29.9        
Jun 17 15:35 SW 7 10 Clear CLR 85 70     61%   89 29.9        
Jun 17 15:15 SW 6 10 Clear CLR 85 70     60%   90 29.91        
Jun 17 14:55 WSW 7 10 Partly Cloudy SCT033 85 70     61%   89 29.91        
Jun 17 14:35 SW 6 10 Clear CLR 85 71     62%   91 29.91        
Jun 17 14:15 SW 8 10 Partly Cloudy SCT033 SCT041 85 71     62%   90 29.92        
Jun 17 13:55 S 7 10 Mostly Cloudy SCT033 BKN041 85 71     63%   90 29.93        
Jun 17 13:35 S 7 10 Mostly Cloudy BKN033 BKN039 84 71     64%   89 29.93        
Jun 17 13:15 S 6 10 Mostly Cloudy BKN033 84 70     63%   89 29.94        
Jun 17 12:55 SSW 10 10 Partly Cloudy SCT031 85 70     62%   89 29.94        
Jun 17 12:35 S 5 10 Partly Cloudy SCT029 83 71     66%   88 29.95        
Jun 17 12:15 SSW 5 10 Partly Cloudy SCT029 83 71     65%   88 29.95        
Jun 17 11:55 S 5 10 Clear CLR 82 70     66%   86 29.96        
Jun 17 11:35 Calm 10 Clear CLR 81 70     68%   85 29.96        
Jun 17 11:15 S 6 10 Clear CLR 81 70     69%   85 29.96        
Jun 17 10:55 S 3 10 Clear CLR 80 69     68%   83 29.96        
Jun 17 10:35 Calm 10 Clear CLR 79 68     69%   80 29.95        
Jun 17 10:15 Calm 10 Clear CLR 78 69     72%   79 29.95        
Jun 17 09:55 Calm 10 Clear CLR 77 69     74%   78 29.94        
Jun 17 09:35 Calm 10 Clear CLR 76 69     77%   77 29.94        
Jun 17 09:15 Calm 10 Clear CLR 74 70     85%   76 29.94        
Jun 17 08:55 Calm 10 Clear CLR 74 69     87%   75 29.94        
Jun 17 08:35 Calm 10 Clear CLR 72 69     92%   73 29.94        
Jun 17 08:15 Calm 10 Clear CLR 69 68     95%     29.93        
Jun 17 07:55 Calm 10 Clear CLR 68 67     96%     29.92        
Jun 17 07:35 Calm 10 Clear CLR 67 66     96%     29.93        
Jun 17 07:15 Calm 10 Clear CLR 67 65     96%     29.93        
Jun 17 06:55 Calm 10 Clear CLR 66 65     96%     29.93        
Jun 17 06:35 Calm 10 Clear CLR 66 65     96%     29.93        
Jun 17 06:15 Calm 10 Partly Cloudy SCT028 67 65     96%     29.93        
Jun 17 05:55 Calm 10 Partly Cloudy SCT002 SCT030 SCT110 66 65     96%     29.94        
Jun 17 05:35 Calm 10 Partly Cloudy SCT002 66 65     96%     29.92        
Jun 17 05:15 Calm 10 Clear CLR 66 65     95%     29.91        
Jun 17 04:55 Calm 10 Clear CLR 66 65     95%     29.9        
Jun 17 04:35 Calm 10 Clear CLR 66 65     95%     29.89        
Jun 17 04:15 Calm 10 Partly Cloudy SCT120 67 65     95%     29.89        
Jun 17 03:55 ESE 3 10 Partly Cloudy SCT120 67 65     95%     29.89        
Jun 17 03:35 Calm 10 Mostly Cloudy BKN120 67 65     94%     29.89        
Jun 17 03:15 Calm 10 Cloudy OVC120 67 65     95%     29.88        
Jun 17 02:55 Calm 10 Partly Cloudy SCT120 67 65     94%     29.88        
Jun 17 02:35 Calm 10 Clear CLR 67 65     94%     29.88        
Jun 17 02:15 Calm 10 Clear CLR 67 65     94%     29.86        
Jun 17 01:55 NE 3 10 Clear CLR 67 65     93%     29.86        
Jun 17 01:35 NW 7 10 Clear   67 65     92%     29.87        
Jun 17 01:15 Calm 10 Clear   68 65     91%     29.85        
Jun 17 00:55 SE 9 10 Clear   67 65     92%     29.83        
Jun 17 00:35 SE 8 10 Clear CLR 67 65     94%     29.84        
Jun 17 00:15 ESE 8 10 Clear CLR 67 65     95%     29.86        
Jun 16 23:55 ESE 7 10 Clear CLR 67 65     95%     29.87        
Jun 16 23:35 SE 5 10 Clear CLR 67 66     95%     29.89        
Jun 16 23:15 ESE 5 10 Clear CLR 67 66     95%     29.89        
Jun 16 22:55 SE 3 10 Clear CLR 67 66     96%     29.91        
Jun 16 22:35 ESE 3 10 Partly Cloudy SCT110 68 66     94%     29.92        
Jun 16 22:15 Calm 10 Cloudy OVC110 68 67     94%     29.95        
Jun 16 21:55 Calm 10 Cloudy OVC110 69 67     93%     29.96        
Jun 16 21:35 Calm 10 Cloudy OVC090 69 67     93%     29.96        
Jun 16 21:15 NNW 6 10 Mostly Cloudy SCT014 BKN080 69 67     93%     29.97        
Jun 16 20:55 SW 6 10 Partly Cloudy SCT016 SCT021 69 67     94%     29.97        
Jun 16 20:35 Calm 10 Clear CLR 69 67     94%     29.94        
Jun 16 20:15 Calm 10 Partly Cloudy SCT010 69 67     93%     29.91        
Jun 16 19:55 Calm 10 Clear CLR 69 67     93%     29.91        
Jun 16 19:35 W 5 10 Clear CLR 69 67     93%     29.89        
Jun 16 19:15 SSE 3 10 Partly Cloudy SCT004 69 67     93%     29.85        
Jun 16 18:55 SW 8 10 Partly Cloudy SCT004 SCT008 69 67     94%     29.86       0
Jun 16 18:35 SW 8 10 Clear CLR 69 67     93%     29.87        
Jun 16 18:15 E 5 10 Partly Cloudy SCT034 SCT045 SCT055 69 67     93%     29.85        
Jun 16 17:55 S 6 10 Light Rain SCT075 BKN090 OVC110 69 67     93%     29.93   0    
Jun 16 17:35 S 10 10 Light Rain SCT055 BKN090 OVC110 69 67     93%     29.93   0    
Jun 16 17:15 SE 6 10 Light Rain SCT070 OVC090 69 67     93%     29.94        
Jun 16 16:55 SE 6 10 Rain OVC100 69 67     94%     29.96   0    
Jun 16 16:35 S 7 10 Light Rain SCT075 OVC090 69 67     93%     29.96   0    
Jun 16 16:15 SE 7 10 Light Rain SCT075 OVC095 69 67     93%     29.96   0    
Jun 16 15:55 SSE 3 10 Rain OVC095 69 67     93%     29.97   0 0  
Jun 16 15:35 SSE 6 10 Thunderstorms and Rain OVC095 69 67     93%     29.96   0    
Jun 16 15:15 SE 7 10 Rain SCT050 SCT065 OVC085 69 67     93%     29.96   0    
Jun 16 14:55 SE 6 10 Light Rain SCT075 OVC080 70 68     93%     29.99   0    
Jun 16 14:35 SE 7 10 Rain SCT075 OVC085 70 68     93%     29.98   0    
Jun 16 14:15 SE 5 10 Rain OVC085 70 68     93%     29.99   0    
Jun 16 13:55 SE 7 7 Rain SCT070 OVC085 70 68     93%   71 29.99   0    
Jun 16 13:35 SSE 5 10 Light Rain SCT070 BKN080 OVC100 71 69     93%   72 29.99   0    
Jun 16 13:15 SE 6 10 Cloudy SCT080 OVC100 71 69     93%   72 29.98        
Jun 16 12:55 ESE 5 7 Light Rain BKN080 OVC090 71 69     93%   72 29.97   0   0
Jun 16 12:35 ESE 3 4 Rain SCT070 OVC100 71 69     92%   72 30.01   0    
Jun 16 12:15 Calm 10 Thunderstorms and Rain SCT050 SCT080 OVC100 71 68     91%   72 30.01        
Jun 16 11:55 Calm 10 Cloudy SCT046 BKN065 OVC090 71 69     91%   72 29.99   0    
Jun 16 11:35 N 3 10 Cloudy SCT042 BKN055 OVC085 71 69     92%   72 30   0    
Jun 16 11:15 Calm 10 Thunderstorms and Rain SCT033 SCT049 OVC065 71 68     91%   72 30.02   0    
Jun 16 10:55 NNW 5 10 Cloudy SCT035 SCT043 OVC065 71 68     92%   72 30.01   0    
Jun 16 10:35 NW 6 10 Rain SCT040 BKN055 OVC070 70 68     93%   71 30.01   0    
Jun 16 10:15 WNW 8 7 Thunderstorms and Rain SCT030 SCT048 OVC055 70 68     92%     30.01   0    
Jun 16 09:55 NNW 8 4 Thunderstorms and Rain SCT023 BKN033 OVC049 70 67     91%   71 30.02   0 0  
Jun 16 09:35 NW 8 10 Heavy Rain BKN031 OVC042 73 68     84%   74 30.02   0    
Jun 16 09:15 NNW 10 10 Cloudy BKN012 BKN022 OVC028 76 67     75%   77 29.99        
Jun 16 08:55 SSW 3 10 Mostly Cloudy BKN010 BKN020 80 75     85%   85 29.97        
Jun 16 08:35 S 3 10 Mostly Cloudy SCT008 BKN018 BKN023 80 75     87%   84 29.97        
Jun 16 08:15 Calm 10 Cloudy SCT008 BKN018 OVC070 78 75     89%   80 29.97        
Jun 16 07:55 Calm 10 Mostly Cloudy SCT018 BKN110 77 74     91%   79 29.97        
Jun 16 07:35 SSE 3 10 Partly Cloudy SCT110 77 74     91%   79 29.96        
Jun 16 07:15 SSE 3 10 Clear CLR 76 74     93%   78 29.95        
Jun 16 06:55 Calm 10 Clear CLR 76 74     92%   78 29.95        
Jun 16 06:35 SSE 3 10 Partly Cloudy SCT017 SCT022 76 74     92%   78 29.94        
Jun 16 06:15 SSE 3 10 Partly Cloudy SCT016 76 74     92%   78 29.93        
Jun 16 05:55 SE 5 10 Clear CLR 76 74     92%   78 29.92        
Jun 16 05:35 Calm 10 Clear CLR 77 74     91%   78 29.93        
Jun 16 05:15 SSE 3 10 Partly Cloudy SCT018 77 74     90%   79 29.93        
May 15 10:35 NW 3 10 Clear CLR 81 66     59%   83 30.02        
May 15 08:35 NNW 6 10 Clear CLR 78 67     70%   78 30.01        
Notice The following observation data may not be complete
May 14 16:15   10 Clear CLR          %              
May 14 09:15 SW 6 10 Partly Cloudy SCT010 78 71     78%   79 30.06        
May 14 07:15 Calm 10 Clear CLR 71 69     95%   72 30.05        
May 13 22:55 Calm 10 Clear CLR 76 70     81%   77 30        
May 13 11:15 S 3 10 Cloudy SCT023 OVC028 82 70     68%   85 30.11        
May 13 06:35 Calm 7 Cloudy OVC007 71 68     92%   72 30.06        
Notice The following observation data may not be complete
May 13 00:15   10 Clear CLR          %              
May 12 22:15 Calm 10 Clear CLR 75 68     78%   76 30.02        
May 12 15:35 SSE 7 10 Mostly Cloudy BKN047 BKN070 90 66     45%   93 30.03        
May 12 13:55 S 3 10 Partly Cloudy SCT038 87 67     53%   90 30.04        
May 12 09:15 S 3 10 Cloudy OVC007 73 69     87%   74 30.1        
May 12 03:15 SSE 5 10 Clear   71 66     86%   71 30        
May 12 01:55 SSE 5 10 Clear CLR 72 66     81%   73 30.01        
May 12 00:55 S 7 10 Clear CLR 74 65     75%   74 30.02        
May 11 22:15 SE 5 10 Clear CLR 77 64     64%   77 29.99        
May 11 21:15 SE 5 10 Clear CLR 76 65     69%   76 29.96        
May 11 17:35 S 9 10 Clear CLR 88 62     43%   88 29.96        
May 11 13:55 S 11 10 Mostly Cloudy BKN048 BKN060 86 63     46%   87 30.02        
May 11 11:55 SW 16 10 Partly Cloudy SCT038 83 64     53%   85 30.06        
Notice The following observation data may not be complete
Jun 11 21:35   10 Clear            %              
Notice The following observation data may not be complete
Jun 11 19:15   10 Partly Cloudy SCT050          %              
Jun 11 13:35 Calm 10 Partly Cloudy SCT037 SCT045 SCT055 87 69     55%   92 30.02        
Jun 11 10:15 S 6 10 Mostly Cloudy SCT025 BKN029 82 69     65%   85 30.04        
Jun 11 08:35 S 3 10 Clear CLR 78 68     73%   78 30.03        
Jun 11 03:15 SSE 3 10 Partly Cloudy SCT075 75 69     81%   76 29.98        
Jun 11 02:15 S 3 10 Cloudy OVC075 76 69     77%   77 29.99        
Jun 10 23:15 SE 6 10 Cloudy SCT045 BKN060 OVC070 78 68     71%   79 29.97        
Jun 10 17:15 S 6 10 Clear CLR 87 62     42%   88 29.93        
Notice The following observation data may not be complete
Jun 10 15:15   10 Partly Cloudy SCT050          %              
Jun 10 12:55 SSE 6 10 Partly Cloudy SCT046 85 61     45%   85 29.99        
Jun 10 10:15 SSE 6 10 Clear CLR 80 63     56%   81 30        
Jun 10 04:15 ESE 3 10 Mostly Cloudy BKN050 67 61     82%     29.93        
Notice The following observation data may not be complete
Jun 10 02:35   10 Partly Cloudy SCT050          %              
Jun 09 19:35 Calm 10 Clear CLR 78 61     57%   78 29.91        
Jun 09 11:35 Calm 10 Mostly Cloudy SCT050 BKN060 79 53     41%   78 29.99        
Jun 09 07:35 Calm 10 Clear CLR 69 59     72%     29.96        
Jun 09 04:15 E 3 10 Clear CLR 64 58     81%     29.93        
Jun 08 22:55 Calm 10 Clear CLR 66 62     86%     29.94        
Notice The following observation data may not be complete
Jun 08 20:15   10 Clear CLR          %              
Jun 08 12:55 E 5 10 Clear CLR 82 52     36%   81 30.01        
Jun 08 08:35 N 3 10 Clear   69 60     73%     30.03        
Notice The following observation data may not be complete
Jun 08 00:35   10 Clear CLR          %              
Jun 07 22:35 Calm 10 Clear CLR 70 59     69%     29.97        
Notice The following observation data may not be complete
Jun 07 16:15   10 Clear CLR          %              
Jun 07 07:35 Calm 10 Clear CLR 71 64     79%   72 29.92        
Jun 06 13:55 N 10 10 Mostly Cloudy BKN026 BKN060 85 72     65%   90 29.78        
Jun 06 13:35 N 10 10 Clear CLR 84 72     67%   90 29.78        
Jun 06 12:15 NNE 7 10 Partly Cloudy SCT025 SCT032 SCT038 82 70     69%   86 29.79        
Jun 06 00:15 Calm 10 Partly Cloudy SCT030 SCT048 72 69     91%   73 29.78        
Notice The following observation data may not be complete
Jun 05 21:15   10 Clear CLR          %              
Notice The following observation data may not be complete
Jun 05 20:15   10 Clear CLR          %              
Jun 05 15:15 Calm 10 Mostly Cloudy SCT028 BKN034 BKN049 83 68     61%   86 29.74        
Jun 05 14:15 Calm 10 Cloudy BKN026 OVC050 81 69     66%   84 29.76